Location: Melbourne
(37.8170°S, 144.9670°E)
Time: 09:33:46
(UTC+10:00)

ERBS - Visible Passes

Search period start: 30 April 2016 00:00
Search period end: 10 May 2016 00:00
Orbit: 434 x 456 km, 57.0° (Epoch: 29 April)

Date Brightness Start Highest point End Pass type
(mag) Time Alt. Az. Time Alt. Az. Time Alt. Az.
01 May 5.5 05:58:54 10° NNE 06:01:29 19° ENE 06:04:05 10° ESE visible
02 May 5.7 05:21:21 10° NE 05:22:44 12° ENE 05:24:09 10° E visible
03 May 2.4 06:16:39 10° NW 06:20:16 89° SW 06:23:56 10° SE visible
04 May 3.1 05:37:57 11° NNW 05:41:22 56° NE 05:44:57 10° SE visible
05 May 3.9 05:01:55 32° NNE 05:02:31 34° NE 05:05:51 10° ESE visible
05 May 3.8 06:36:32 10° W 06:39:28 23° SW 06:42:25 10° SSE visible
06 May 5.5 04:25:30 15° E 04:25:30 15° E 04:26:31 10° ESE visible
06 May 3.3 05:59:03 24° W 06:00:25 32° SW 06:03:44 10° SSE visible
07 May 3.4 05:22:20 37° S 05:22:20 37° S 05:24:57 10° SSE visible
08 May 5.2 04:45:24 15° SE 04:45:24 15° SE 04:46:04 10° SE visible
08 May 4.7 06:18:56 11° SW 06:19:53 11° SSW 06:21:09 10° S visible
09 May 4.7 05:41:50 14° SSW 05:41:50 14° SSW 05:42:55 10° S visible
